"Pseudo-MPEC" for P11Jurz

Created 2023 Oct 5 17:22:15 UT using Find_Orb

Click here for an explanation of pseudo-MPECs

 
 Astrometry: 
     P11Jurz* C2023 09 14a^FHr)%k'o^Astrometry6Znc1CfqD@BhJ_LeWbM;redacted;.uF51
     P11Jurz  C2023 09 144k!YrqxBV4$Q3r_F8'4=f`(CH/90_'U:`'18IclickA'K2_*DHwKF51
     P11Jurz  C2023 09 14\:kherevvhx,'bE.=for_IDJ;Hlvsl/2H9Vp6[,*('oZgPB29_q]F51
     P11Jurz  C2023 09 14AW+gTY3=k[VHQG]]Qd?23yycA1Z\rexplanation$PWE^6Y!(nW*F51

Station data:
(F51) Pan-STARRS 1, Haleakala  (N20.707234 W156.255910)  US/Hawaii.
   Observers J. Bulger, T. Lowe, A. Schultz, M. Willman. Measurers K.
   Chambers, S. Chastel, T. de Boer, L. Denneau, J. Fairlamb, H. Flewelling,
   M. Huber, C.-C. Lin, E. Magnier, Y. Ramanjooloo, R. Wainscoat, R. Weryk.
   1.8-m Ritchey-Chrétien + CCD.

Orbital elements:  P11Jurz
   Perihelion 2023 Nov 2.37738 +/- 55.1 TT =  9:03:25 (JD 2460250.87738)
Epoch 2023 Sep 14.0 TT = JDT 2460201.5   Earth MOID: 0.6657   Ju: 0.0969
M 354.02459497 +/- 14               (J2000 ecliptic)             AutoNEOCP
n   0.12101502 +/- 0.176            Peri.  354.38972 +/- 70
a   4.04802489 +/- 3.92             Node    23.86505 +/- 44
e   0.5889232 +/- 0.238             Incl.    3.90077 +/- 2.4
P   8.14                   H 21.31  G  0.15   U 11.6  SR
q 1.66404882 +/- 0.653    Q 6.43200095 +/- 116
From 4 observations 2023 Sept. 14 (50.6 min); mean residual 0".06
Residuals in arcseconds: 
230914 F51  .03-  .00     230914 F51  .12-  .02+    
230914 F51  .10+  .01-    230914 F51  .04+  .01-    

Ephemerides (geocentric):
Date (UTC) HH   RA             Dec           delta  r     elong  mag " sig PA
---- --------  ------------   ------------  ------ ------ -----  --- --------
2023 10 05 17  23 25 49.393   -07 19 11.17  .72097 1.6879 157.2 22.5  45d  86
2023 10 05 18  23 25 48.989   -07 18 58.49  .72102 1.6878 157.1 22.5  45d  86
2023 10 05 19  23 25 48.587   -07 18 45.78  .72108 1.6877 157.1 22.5  45d  86
2023 10 05 20  23 25 48.188   -07 18 33.06  .72114 1.6877 157.0 22.5  45d  86
2023 10 05 21  23 25 47.792   -07 18 20.31  .72120 1.6876 157.0 22.5  45d  86
2023 10 05 22  23 25 47.399   -07 18 07.54  .72126 1.6875 157.0 22.5  45d  86
2023 10 05 23  23 25 47.008   -07 17 54.76  .72132 1.6875 156.9 22.5  45d  86
2023 10 06 00  23 25 46.619   -07 17 41.95  .72138 1.6874 156.9 22.5  45d  86
2023 10 06 01  23 25 46.234   -07 17 29.12  .72144 1.6873 156.8 22.5  45d  86
2023 10 06 02  23 25 45.851   -07 17 16.26  .72150 1.6872 156.8 22.5  45d  86
2023 10 06 03  23 25 45.470   -07 17 03.39  .72157 1.6872 156.8 22.5  45d  86
2023 10 06 04  23 25 45.093   -07 16 50.50  .72163 1.6871 156.7 22.5  45d  86
2023 10 06 05  23 25 44.718   -07 16 37.58  .72169 1.6870 156.7 22.5  45d  86
2023 10 06 06  23 25 44.345   -07 16 24.65  .72175 1.6870 156.6 22.5  45d  86
2023 10 06 07  23 25 43.976   -07 16 11.69  .72181 1.6869 156.6 22.5  45d  86
2023 10 06 08  23 25 43.609   -07 15 58.71  .72188 1.6868 156.6 22.5  45d  86
2023 10 06 09  23 25 43.245   -07 15 45.72  .72194 1.6868 156.5 22.5  45d  86
2023 10 06 10  23 25 42.883   -07 15 32.70  .72200 1.6867 156.5 22.5  45d  86
2023 10 06 11  23 25 42.524   -07 15 19.65  .72207 1.6866 156.4 22.5  45d  86
2023 10 06 12  23 25 42.168   -07 15 06.59  .72213 1.6865 156.4 22.5  45d  86
2023 10 06 13  23 25 41.815   -07 14 53.51  .72220 1.6865 156.4 22.5  45d  86
2023 10 06 14  23 25 41.464   -07 14 40.40  .72226 1.6864 156.3 22.5  45d  87
2023 10 06 15  23 25 41.116   -07 14 27.28  .72232 1.6863 156.3 22.5  45d  87
2023 10 06 16  23 25 40.771   -07 14 14.13  .72239 1.6863 156.2 22.5  45d  87
2023 10 06 17  23 25 40.429   -07 14 00.96  .72246 1.6862 156.2 22.5  45d  87
2023 10 06 18  23 25 40.089   -07 13 47.78  .72252 1.6861 156.2 22.5  45d  87
2023 10 06 19  23 25 39.752   -07 13 34.57  .72259 1.6861 156.1 22.5  45d  87
2023 10 06 20  23 25 39.418   -07 13 21.33  .72265 1.6860 156.1 22.5  45d  87
2023 10 06 21  23 25 39.086   -07 13 08.08  .72272 1.6859 156.0 22.5  45d  87
2023 10 06 22  23 25 38.757   -07 12 54.81  .72279 1.6859 156.0 22.5  45d  87
2023 10 06 23  23 25 38.431   -07 12 41.51  .72286 1.6858 156.0 22.5  45d  87
2023 10 07 00  23 25 38.108   -07 12 28.20  .72292 1.6857 155.9 22.5  45d  87
2023 10 07 01  23 25 37.788   -07 12 14.86  .72299 1.6857 155.9 22.5  45d  87
2023 10 07 02  23 25 37.470   -07 12 01.50  .72306 1.6856 155.8 22.5  45d  87
2023 10 07 03  23 25 37.155   -07 11 48.12  .72313 1.6855 155.8 22.5  45d  87
2023 10 07 04  23 25 36.843   -07 11 34.72  .72320 1.6855 155.8 22.5  45d  87
2023 10 07 05  23 25 36.534   -07 11 21.30  .72327 1.6854 155.7 22.5  45d  87
2023 10 07 06  23 25 36.227   -07 11 07.86  .72333 1.6853 155.7 22.5  45d  87
2023 10 07 07  23 25 35.923   -07 10 54.39  .72340 1.6853 155.6 22.5  45d  87
2023 10 07 08  23 25 35.622   -07 10 40.91  .72347 1.6852 155.6 22.5  45d  87
2023 10 07 09  23 25 35.324   -07 10 27.40  .72354 1.6851 155.6 22.5  45d  87
2023 10 07 10  23 25 35.029   -07 10 13.87  .72362 1.6851 155.5 22.5  45d  87
2023 10 07 11  23 25 34.736   -07 10 00.32  .72369 1.6850 155.5 22.5  45d  87
2023 10 07 12  23 25 34.447   -07 09 46.75  .72376 1.6849 155.4 22.5  45d  87
2023 10 07 13  23 25 34.160   -07 09 33.16  .72383 1.6849 155.4 22.5  45d  87
2023 10 07 14  23 25 33.876   -07 09 19.55  .72390 1.6848 155.4 22.5  45d  87
2023 10 07 15  23 25 33.594   -07 09 05.91  .72397 1.6847 155.3 22.5  45d  87
2023 10 07 16  23 25 33.316   -07 08 52.26  .72405 1.6847 155.3 22.5  45d  87